Погода в Березовце

Россия / Костромская область     58°37′59″N   42°16′05″E
темп.,
°C
ветер,
м/с
пор.,
м/с
влажн.,
%
обл.,
%
осадки,
мм/ч
давл.,
гПа
погр.,
м
31 июля, сб
сб3100:00+16ю229690 0.1 100123
03:00+16ююз2799100 2.9 1000280
06:00+16ююз3899100 2.3 1000308
09:00+17зюз3109394 2.3 1000452
12:00+24зюз58425 0.0 10001672
15:00+21юз49485 0.0 1000871
18:00+19з4105526 0.0 1001954
21:00+17юз411675 0.1 1002627
1 августа, вс
вс100:00+14юз314835 0.1 1003405
03:00+14зюз311795 0.1 1005383
06:00+14зюз38870 0.0 1007267
09:00+20з485578 0.0 10081153
12:00+24зюз474332 0.0 10081956
15:00+23юз3753100 0.0 1008823
18:00+23юз4855100 0.1 10071255
21:00+16ююз3118756 0.1 1008357
2 августа, пн
пн200:00+15юз3109859 0.3 1008338
03:00+15ююз3910052 0.3 1008249
06:00+16ююз279798 0.0 1009191
09:00+21ююз3671100 0.0 1009444
12:00+25юз465185 0.3 10091616
15:00+27юз47407 0.3 10072259
18:00+22ю377299 0.1 1006434
21:00+20ююв31085100 0.2 1005426
3 августа, вт
вт300:00+18ююв41597100 0.5 1003507
03:00+18ю41495100 0.6 1002484
06:00+18ю31195100 0.1 1001459
09:00+18ююз3897100 0.4 1001419
12:00+20юз4785100 0.2 1003783
15:00+21юз366682 0.3 10031137
18:00+21зюз136897 0.1 1004437
21:00+17сз2381100 0.3 100580
4 августа, ср
ср400:00+15зюз279370 0.2 1007198
03:00+15з248959 0.3 1008118
06:00+14юз2592100 0.0 1009177
09:00+20зюз35584 0.0 1010970
12:00+23з354270 0.3 10102202
15:00+20з365597 0.3 1012906
18:00+21з354913 0.0 10131452
21:00+14зсз26808 0.0 1015177